SL-14 DEB, 45292

Orbit data source: Space-Track

SL-14 DEB, 45292 is space debris in LEO originally from a launch on Thu, 15 Aug 1991 UTC launched from the Plesetsk Missile And Space Complex (PKMTR). Debris objects in space refer to the collection of defunct objects orbiting the Earth. Examples of debris include non-operational satellites, rocket bodies, and fragments generated from explosions, collisions, or faulty payload assembly.

Loading next visibility...
Identifier
45292, 1991-056AE
Orbit
LEO
Country
Flag of CISCIS
Related business
Manufacturer
Unknown
Mission
Spacecraft
Bus & Motor
Unknown
Mass
Unknown
Launch date (UTC)
1991-08-15 (34 years ago)
Launch vehicle
Unknown
Launch site
Plesetsk Missile And Space Complex (PKMTR)
Object type
Payload
Rocket body
Debris
Shape & HBR
Unknown shape, 0.1 m
Radar Cross Section
Small (<0.1 m²)

Expand to show TLE details & history
Last TLE update: 1 day ago

TLE from 1 day ago
0 SL-14 DEB
1 45292U 91056AE  26035.53414407  .00005055  00000-0  87552-2 0  9991
2 45292  82.6272 210.1865 0098063 178.5624 181.5814 13.41835197289754
Epoch: 2026-02-04T12:49Z
TLE epoch observation values (Epoch: 2026-02-04T12:49:10.047Z)
Latitude
-0.00004°
Longitude
-116.80471°
Altitude
1,178.639 km
Speed
7.229 km/s
True Right ascension
14h 00m 44s
True Declination
0° 00' 00"
Sunlit
Object was in daylight at epoch
Visualization orbit readout
Latitude
Unknown
Longitude
Unknown
Altitude
Unknown
Speed
Unknown
Apparent Right ascension
Unknown
Apparent Declination
Unknown
Sunlit
N/A
Visualization observer readout
Local Sidereal Time
23:42:35
Azimuth
Unknown
Elevation
Unknown
Doppler factor
Unknown
Orbital elements
Apogee altitude
1,172.987 km
Perigee altitude
1,026.328 km
Semi-major axis
7,477.794 km
Eccentricity
0.00981
Inclination
82.6272°
RAAN
210.1865°
Arg. of periapsis
178.5624°
True anomaly
181.55076°
Mean anomaly
181.5814°
Eccentric anomaly
181.56604°
Mean motion
3.35647 °/min
Orbital period
107.26 mins
BSTAR
0.0087552
Loading maneuver chart data...
Computing Atmospheric mass density...
Loading historical data...
Loading historical data...
Loading historical data...
Loading historical data...
Loading historical data...
Loading historical data...
Loading historical data...

Documentation

Showing up to 5 results
|